Antigo, WI

2:54 AM CST on November 21, 2017 (GMT -0600)
Langlade County

Weather History for KAIG - November, 2012

Change the Weather History Date:

Sunday, November 11, 2012

  Actual Average Record
Temperature  
Mean Temperature 42 °F -  
Max Temperature 56 °F 38 °F 67 °F (1964)
Min Temperature 28 °F 25 °F -1 °F (1986)
Degree Days  
Heating Degree Days 22    
Moisture  
Dew Point 45 °F    
Average Humidity 92    
Maximum Humidity 99    
Minimum Humidity 81    
Precipitation  
Precipitation 0.53 in - - ()
Sea Level Pressure  
Sea Level Pressure 29.69 in    
Wind  
Wind Speed 13 mph (SSW)    
Max Wind Speed 18 mph    
Max Gust Speed 25 mph    
Visibility 8 miles    
Events Rain    
Averages and records for this station are not official NWS values.
T = Trace of Precipitation, MM = Missing Value Source: NWS Daily Summary

Daily Weather History Graph

Daily Weather History Graph

Search for Another Location

Airport or City:

Trip Planner

Search our weather history database for the weather conditions in past years. The results will help you decide how hot, cold, wet, or windy it might be!

Date:

Astronomy

Nov. 11, 2012 Rise Set
Actual Time 6:49 AM CST 4:30 PM CST
Civil Twilight 6:18 AM CST 5:02 PM CST
Nautical Twilight 5:42 AM CST 5:37 PM CST
Astronomical Twilight 5:08 AM CST 6:12 PM CST
Moon 3:57 AM CST (11/11) 2:58 PM CST (11/11)
Length of Visible Light 10h 44m
Length of Day
9h 41m
Waning Crescent, 7% of the Moon is Illuminated
Nov 11
Waning Crescent
Nov 13
New
Nov 20
First Quarter
Nov 28
Full
Dec 6
Last Quarter

Hourly Weather History & Observations

Time (CST) Temp. Windchill Dew Point Humidity Pressure Visibility Wind Dir Wind Speed Gust Speed Precip Events Conditions
12:15 AM 49.6 °F - 48.9 °F 97% 29.71 in 5.0 mi SSE 8.1 mph - N/A   Scattered Clouds
12:35 AM 50.2 °F - 49.1 °F 96% 29.71 in 5.0 mi SSE 11.5 mph - 0.01 in Rain Light Rain
12:55 AM 51.4 °F - 49.8 °F 94% 29.71 in 7.0 mi SSE 13.8 mph - 0.01 in   Overcast
1:15 AM 52.2 °F - 50.0 °F 92% 29.71 in 10.0 mi SSE 13.8 mph - N/A   Overcast
1:35 AM 53.4 °F - 49.8 °F 88% 29.70 in 10.0 mi South 15.0 mph - N/A   Overcast
1:55 AM 53.6 °F - 49.8 °F 87% 29.71 in 10.0 mi South 15.0 mph 20.7 mph N/A   Overcast
2:15 AM 54.7 °F - 50.0 °F 84% 29.71 in 10.0 mi South 17.3 mph 21.9 mph N/A   Overcast
2:35 AM 54.7 °F - 49.8 °F 84% 29.71 in 10.0 mi South 16.1 mph 21.9 mph N/A   Overcast
2:55 AM 54.7 °F - 50.0 °F 84% 29.72 in 10.0 mi South 17.3 mph 21.9 mph N/A   Overcast
3:15 AM 54.7 °F - 50.0 °F 84% 29.71 in 10.0 mi South 16.1 mph 21.9 mph N/A   Overcast
3:35 AM 54.9 °F - 50.0 °F 84% 29.71 in 10.0 mi South 17.3 mph 23.0 mph N/A   Overcast
3:55 AM 54.7 °F - 49.6 °F 83% 29.72 in 10.0 mi South 15.0 mph - N/A   Overcast
4:15 AM 55.0 °F - 49.5 °F 81% 29.73 in 10.0 mi South 16.1 mph 21.9 mph N/A   Overcast
4:35 AM 54.5 °F - 49.3 °F 83% 29.72 in 10.0 mi South 16.1 mph - N/A   Mostly Cloudy
4:55 AM 54.3 °F - 49.1 °F 83% 29.72 in 10.0 mi South 15.0 mph 21.9 mph N/A   Scattered Clouds
5:35 AM 54.7 °F - 48.9 °F 81% 29.70 in 10.0 mi South 9.2 mph - N/A   Mostly Cloudy
5:55 AM 54.5 °F - 49.1 °F 82% 29.69 in 10.0 mi South 11.5 mph - N/A   Overcast
6:15 AM 54.7 °F - 49.1 °F 81% 29.71 in 10.0 mi South 15.0 mph - N/A   Overcast
6:35 AM 54.3 °F - 49.5 °F 84% 29.70 in 10.0 mi South 11.5 mph 17.3 mph N/A   Overcast
6:55 AM 54.0 °F - 50.4 °F 88% 29.72 in 10.0 mi SSW 15.0 mph 24.2 mph N/A   Overcast
7:35 AM 53.6 °F - 50.9 °F 91% 29.68 in 10.0 mi SSE 8.1 mph - N/A   Scattered Clouds
8:15 AM 53.2 °F - 50.9 °F 92% 29.69 in 10.0 mi SSE 16.1 mph - N/A   Scattered Clouds
8:35 AM 53.8 °F - 50.9 °F 90% 29.70 in 10.0 mi South 13.8 mph 17.3 mph N/A   Mostly Cloudy
8:55 AM 54.5 °F - 51.1 °F 88% 29.69 in 10.0 mi South 16.1 mph 21.9 mph N/A   Overcast
9:15 AM 55.0 °F - 51.3 °F 87% 29.70 in 10.0 mi South 17.3 mph - N/A   Overcast
9:35 AM 55.0 °F - 51.1 °F 86% 29.70 in 10.0 mi South 16.1 mph 20.7 mph N/A   Overcast
9:55 AM 55.4 °F - 51.1 °F 85% 29.70 in 10.0 mi South 15.0 mph - N/A   Overcast
10:15 AM 55.9 °F - 51.4 °F 85% 29.70 in 10.0 mi South 12.7 mph 19.6 mph N/A   Overcast
10:35 AM 55.8 °F - 51.3 °F 85% 29.69 in 10.0 mi South 12.7 mph - N/A   Overcast
10:55 AM 56.3 °F - 51.6 °F 84% 29.66 in 10.0 mi South 10.4 mph - N/A   Overcast
11:15 AM 56.3 °F - 51.6 °F 84% 29.64 in 10.0 mi SSW 11.5 mph - N/A   Overcast
11:35 AM 54.7 °F - 52.0 °F 91% 29.64 in 7.0 mi South 10.4 mph - 0.01 in Rain Rain
12:15 PM 53.6 °F - 52.3 °F 95% 29.67 in 5.0 mi South 15.0 mph 19.6 mph 0.04 in Rain Rain
12:35 PM 53.1 °F - 52.3 °F 97% 29.62 in 5.0 mi South 11.5 mph - 0.11 in Rain Rain
12:55 PM 53.1 °F - 52.7 °F 99% 29.64 in 5.0 mi South 10.4 mph - 0.13 in Rain Light Rain
1:15 PM 53.1 °F - 52.2 °F 97% 29.62 in 7.0 mi South 15.0 mph 18.4 mph 0.02 in Rain Light Rain
1:35 PM 52.7 °F - 52.0 °F 97% 29.61 in 7.0 mi South 12.7 mph - 0.05 in Rain Light Rain
1:55 PM 52.7 °F - 52.0 °F 97% 29.61 in 7.0 mi South 12.7 mph - 0.07 in Rain Light Rain
2:15 PM 52.7 °F - 52.2 °F 98% 29.60 in 7.0 mi SSW 10.4 mph - N/A Rain Light Rain
2:35 PM 52.0 °F - 51.1 °F 97% 29.63 in 3.0 mi WSW 16.1 mph 20.7 mph 0.04 in Rain Light Rain
2:55 PM 50.0 °F - 48.7 °F 95% 29.64 in 7.0 mi WSW 12.7 mph 18.4 mph 0.08 in Rain Light Rain
3:15 PM 49.1 °F - 47.7 °F 95% 29.63 in 7.0 mi West 12.7 mph 16.1 mph 0.02 in Rain Light Rain
3:35 PM 48.2 °F - 46.8 °F 95% 29.62 in 10.0 mi WSW 6.9 mph - 0.03 in Rain Light Rain
3:55 PM 47.7 °F - 46.6 °F 96% 29.63 in 10.0 mi WSW 5.8 mph - 0.05 in Rain Light Rain
4:15 PM 47.3 °F - 46.6 °F 97% 29.63 in 7.0 mi WSW 4.6 mph - 0.02 in Rain Light Rain
4:35 PM 46.9 °F - 46.4 °F 98% 29.62 in 7.0 mi WSW 3.5 mph - 0.05 in Rain Rain
4:55 PM 46.4 °F 44.3 °F 46.0 °F 99% 29.62 in 10.0 mi SW 4.6 mph - 0.07 in Rain Light Rain
5:15 PM 46.0 °F 43.9 °F 45.9 °F 99% 29.62 in 7.0 mi SSW 4.6 mph - 0.03 in Rain Light Rain
5:35 PM 45.9 °F 42.9 °F 45.7 °F 99% 29.62 in 7.0 mi SSW 5.8 mph - 0.05 in Rain Light Rain
5:55 PM 45.5 °F 39.6 °F 45.0 °F 98% 29.65 in 10.0 mi SW 12.7 mph - 0.07 in Rain Light Rain
6:15 PM 43.9 °F 36.8 °F 43.0 °F 97% 29.66 in 7.0 mi WSW 15.0 mph - 0.02 in Rain Rain
6:35 PM 41.2 °F 34.1 °F 40.3 °F 97% 29.67 in 10.0 mi West 12.7 mph 18.4 mph 0.03 in Rain Light Rain
6:55 PM 40.1 °F 32.7 °F 39.2 °F 97% 29.67 in 10.0 mi West 12.7 mph - 0.04 in Rain Light Rain
7:15 PM 39.4 °F 31.8 °F 38.5 °F 97% 29.66 in 10.0 mi West 12.7 mph 16.1 mph N/A   Overcast
7:35 PM 38.3 °F 30.1 °F 37.6 °F 97% 29.69 in 10.0 mi WSW 13.8 mph 19.6 mph N/A   Overcast
7:55 PM 36.7 °F 27.6 °F 36.5 °F 99% 29.70 in 5.0 mi West 15.0 mph 23.0 mph N/A   Overcast
8:15 PM 34.7 °F 25.5 °F 34.2 °F 98% 29.70 in 2.0 mi West 13.8 mph 19.6 mph N/A   Overcast
8:35 PM 33.8 °F 24.3 °F 32.7 °F 96% 29.71 in 7.0 mi West 13.8 mph 23.0 mph N/A   Overcast
8:55 PM 33.6 °F 23.7 °F 32.7 °F 96% 29.72 in 7.0 mi West 15.0 mph 20.7 mph N/A   Overcast
9:15 PM 32.7 °F 23.0 °F 32.0 °F 97% 29.75 in 10.0 mi West 13.8 mph - N/A   Overcast
9:35 PM 32.0 °F 21.6 °F 31.8 °F 99% 29.73 in 5.0 mi WSW 15.0 mph - N/A   Overcast
9:55 PM 32.0 °F 22.5 °F 31.1 °F 96% 29.76 in 7.0 mi West 12.7 mph 19.6 mph N/A   Overcast
10:15 PM 31.6 °F 21.6 °F 30.9 °F 97% 29.77 in 3.0 mi West 13.8 mph - N/A   Overcast
10:35 PM 30.7 °F 20.4 °F 30.6 °F 99% 29.76 in 4.0 mi West 13.8 mph 24.2 mph N/A   Overcast
10:55 PM 30.2 °F 18.5 °F 29.3 °F 96% 29.74 in 10.0 mi West 17.3 mph 25.3 mph N/A   Overcast
11:15 PM 29.8 °F 18.0 °F 28.6 °F 95% 29.76 in 10.0 mi West 17.3 mph 24.2 mph N/A   Overcast
11:35 PM 29.1 °F 18.4 °F 27.5 °F 94% 29.78 in 10.0 mi West 13.8 mph 24.2 mph N/A   Overcast
11:55 PM 28.2 °F 15.5 °F 26.4 °F 93% 29.79 in 10.0 mi West 18.4 mph 24.2 mph N/A   Overcast